Location: ??????
(41.3164°N, 22.6615°E)
Time: 14:51:21
(UTC+00:00)

H-2A R/B - Pass Details

Date: 23 May 2022
Orbit: 576 x 653 km, 98.5° (Epoch: 30 June)

Event Time Altitude Azimuth Distance (km) Brightness Sun altitude
Rises 19:55:15 0° 352° (N) 2,800 6.5 -18.8°
Reaches altitude 10° 19:58:25 10° 325° (NW) 1,893 5.8 -19.2°
Maximum altitude 20:00:19 13° 297° (WNW) 1,694 5.2 -19.4°
Drops below altitude 10° 20:02:14 10° 269° (W) 1,889 5.0 -19.6°
Sets 20:05:24 0° 242° (WSW) 2,789 5.5 -19.9°
